Location: Bukovany
(49.8234°N, 14.6297°E)
Time: 07:00:30
(UTC+00:00)

Cosmos 921 Rocket - Pass Details

Date: 17 November 2025
Orbit: 563 x 621 km, 75.8° (Epoch: 10 December)

Event Time Altitude Azimuth Distance (km) Brightness Sun altitude
Rises 15:43:54 0° 202° (SSW) 2,834 7.2 -4.9°
Reaches altitude 10° 15:46:06 10° 203° (SSW) 1,945 6.4 -5.3°
Maximum altitude 15:50:27 80° 291° (WNW) 626 3.2 -5.9°
Drops below altitude 10° 15:54:54 10° 19° (NNE) 1,990 5.3 -6.6°
Sets 15:57:11 0° 21° (NNE) 2,906 6.1 -6.9°
